FW0115 Weather Reports


Display with metric or nautical units.
time (UTC)temp
F
wind
direction
speed
MPH
gust
MPH
rain 1hr
in
rain 24hr
in
rain mn
in
humidity
%
barometer
mb
20200812012708 61 180 7.0 14.0 0.00 0.00 0.00 70 1008.1
20200812011614 61 158 8.0 9.0 0.00 0.00 0.00 70 1008.1
20200812010603 61 158 7.0 9.0 0.00 0.00 0.00 70 1008.1
20200812005520 60 158 4.0 7.0 0.00 0.00 0.00 73 1008.5
20200812004515 61 113 3.0 8.0 0.00 0.00 0.00 70 1008.5
20200812003405 61 113 5.0 6.0 0.00 0.00 0.00 70 1008.8
20200812002405 61 113 4.0 5.0 0.00 0.00 0.00 69 1009.1
20200812001335 62 180 1.0 3.0 0.00 0.00 0.00 66 1009.5
20200812000305 63 158 1.0 3.0 0.00 0.00 0.00 63 1009.5
20200811235104 63 203 3.0 6.0 0.00 0.00 0.00 63 1009.5
20200811234036 63 113 5.0 6.0 0.00 0.00 0.00 61 1009.1
20200811232915 63 113 6.0 7.0 0.00 0.00 0.00 60 1009.1
20200811231806 64 68 2.0 8.0 0.00 0.00 0.00 59 1009.1
20200811230735 64 113 6.0 10.0 0.00 0.00 0.00 58 1009.1
20200811225703 65 158 4.0 9.0 0.00 0.00 0.00 58 1009.1
20200811224617 66 158 7.0 9.0 0.00 0.00 0.00 55 1008.8
20200811223510 67 180 7.0 12.0 0.00 0.00 0.00 50 1008.8
20200811222403 67 113 10.0 11.0 0.00 0.00 0.00 50 1008.8
20200811221313 67 158 10.0 10.0 0.00 0.00 0.00 50 1008.8
20200811220213 68 113 9.0 9.0 0.00 0.00 0.00 53 1009.1
20200811203903 69 113 4.0 8.0 0.00 0.00 0.00 48 1009.8
20200811202805 69 158 2.0 6.0 0.00 0.00 0.00 50 1010.2
20200811201713 70 203 7.0 9.0 0.00 0.00 0.00 46 1010.2
20200811200705 70 113 8.0 8.0 0.00 0.00 0.00 45 1010.2
20200811195606 70 113 4.0 10.0 0.00 0.00 0.00 48 1010.2
20200811194611 69 135 6.0 10.0 0.00 0.00 0.00 46 1010.2
20200811193510 71 113 9.0 9.0 0.00 0.00 0.00 45 1010.5
20200811192522 70 180 4.0 10.0 0.00 0.00 0.00 45 1010.5
20200811191405 71 270 4.0 6.0 0.00 0.00 0.00 43 1010.5
20200811190403 70 180 5.0 7.0 0.00 0.00 0.00 41 1010.5
20200811185305 69 270 2.0 9.0 0.00 0.00 0.00 40 1010.5
20200811184204 69 225 6.0 8.0 0.00 0.00 0.00 44 1010.8
20200811183119 69 135 7.0 7.0 0.00 0.00 0.00 45 1010.8
20200811182104 68 203 5.0 8.0 0.00 0.00 0.00 44 1010.8
20200811181102 68 180 5.0 7.0 0.00 0.00 0.00 45 1010.8
20200811180010 67 248 5.0 10.0 0.00 0.00 0.00 45 1011.2
20200811175008 67 203 7.0 8.0 0.00 0.00 0.00 50 1011.2
20200811173910 66 203 5.0 8.0 0.00 0.00 0.00 50 1011.2
20200811172805 66 90 6.0 11.0 0.00 0.00 0.00 50 1011.5
20200811171804 66 158 6.0 9.0 0.00 0.00 0.00 53 1011.5
20200811170704 65 203 8.0 9.0 0.00 0.00 0.00 51 1011.2
20200811165604 65 113 4.0 10.0 0.00 0.00 0.00 55 1011.5
20200811164504 65 225 6.0 8.0 0.00 0.00 0.00 55 1011.5
20200811163405 65 158 6.0 8.0 0.00 0.00 0.00 58 1011.5
20200811162308 65 248 8.0 8.0 0.00 0.00 0.00 58 1011.5
20200811161206 64 270 9.0 9.0 0.00 0.00 0.00 58 1011.5
20200811160105 63 203 3.0 8.0 0.00 0.00 0.00 59 1011.5
20200811155103 62 270 3.0 8.0 0.00 0.00 0.00 61 1011.5
20200811154011 63 203 6.0 9.0 0.00 0.00 0.00 58 1011.5
20200811153007 62 248 6.0 6.0 0.00 0.00 0.00 61 1011.5
20200811151903 63 225 1.0 5.0 0.00 0.00 0.00 61 1011.5
20200811150807 62 203 1.0 4.0 0.00 0.00 0.00 63 1011.9
20200811145703 61 203 2.0 3.0 0.00 0.00 0.00 65 1011.9
20200811144607 59 225 1.0 3.0 0.00 0.00 0.00 65 1011.9
20200811143503 58 270 4.0 5.0 0.00 0.00 0.00 65 1011.9
20200811142403 56 248 1.0 3.0 0.00 0.00 0.00 70 1012.2
20200811141304 55 203 2.0 3.0 0.00 0.00 0.00 71 1012.2
20200811140303 53 248 2.0 3.0 0.00 0.00 0.00 74 1012.2
20200811135203 52 270 2.0 4.0 0.00 0.00 0.00 74 1012.2
20200811134203 51 180 2.0 4.0 0.00 0.00 0.00 75 1012.2
20200811133103 50 270 4.0 4.0 0.00 0.00 0.00 75 1012.2
20200811132004 49 293 0.0 6.0 0.00 0.00 0.00 78 1012.2
20200811130903 48 270 5.0 5.0 0.00 0.00 0.00 80 1012.2
20200811125803 47 293 3.0 4.0 0.00 0.00 0.00 81 1012.2
20200811124841 48 315 2.0 5.0 0.00 0.00 0.00 79 1012.2
20200811123610 47 270 2.0 4.0 0.00 0.00 0.00 81 1012.2
20200811122520 46 270 2.0 4.0 0.00 0.00 0.00 81 1012.2
20200811121513 46 203 3.0 7.0 0.00 0.00 0.00 81 1012.2
20200811120403 46 180 3.0 6.0 0.00 0.00 0.00 83 1012.2
20200811115334 46 225 3.0 6.0 0.00 0.00 0.00 83 1012.2
20200811114204 45 225 4.0 7.0 0.00 0.00 0.00 83 1012.2
20200811113105 45 248 3.0 6.0 0.00 0.00 0.00 86 1012.2
20200811112007 44 180 1.0 5.0 0.00 0.00 0.00 88 1012.2
20200811110904 45 203 0.0 2.0 0.00 0.00 0.00 88 1012.2
20200811105837 45 225 1.0 2.0 0.00 0.00 0.00 88 1012.2
20200811104704 45 180 1.0 1.0 0.00 0.00 0.00 86 1012.2
20200811103701 45 270 1.0 3.0 0.00 0.00 0.00 86 1012.2
20200811102504 45 270 1.0 2.0 0.00 0.00 0.00 86 1012.2
20200811101405 45 270 1.0 2.0 0.00 0.00 0.00 86 1012.2
20200811100203 45 293 1.0 1.0 0.00 0.00 0.00 86 1012.2
20200811095011 46 248 1.0 3.0 0.00 0.00 0.00 85 1012.2
20200811093904 46 293 1.0 3.0 0.00 0.00 0.00 86 1012.2
20200811092803 46 293 2.0 3.0 0.00 0.00 0.00 86 1012.2
20200811091703 47 270 2.0 4.0 0.00 0.00 0.00 86 1012.2
20200811090604 47 270 2.0 4.0 0.00 0.00 0.00 86 1012.2
20200811085504 46 225 2.0 3.0 0.00 0.00 0.00 86 1012.2
20200811084403 47 270 3.0 4.0 0.00 0.00 0.00 86 1012.2
20200811083303 47 270 2.0 3.0 0.00 0.00 0.00 85 1012.2
20200811082107 48 270 1.0 5.0 0.00 0.00 0.00 83 1012.2
20200811080903 47 248 4.0 5.0 0.00 0.00 0.00 85 1012.5
20200811075902 47 270 3.0 5.0 0.00 0.00 0.00 85 1012.2
20200811074804 48 270 3.0 4.0 0.00 0.00 0.00 83 1012.2
20200811073703 48 270 3.0 6.0 0.00 0.00 0.00 81 1012.2
20200811072705 48 225 2.0 6.0 0.00 0.00 0.00 81 1012.2
20200811071603 48 270 1.0 6.0 0.00 0.00 0.00 81 1012.2
20200811070603 49 293 2.0 5.0 0.00 0.00 0.00 81 1012.2
20200811065507 49 203 4.0 4.0 0.00 0.00 0.00 81 1012.2
20200811064403 48 315 3.0 4.0 0.00 0.00 0.00 83 1012.2
20200811063303 48 270 2.0 3.0 0.00 0.00 0.00 83 1012.2
20200811062203 49 248 3.0 3.0 0.00 0.00 0.00 83 1012.2
20200811061203 49 270 2.0 4.0 0.00 0.00 0.00 83 1012.2
20200811060107 49 225 1.0 4.0 0.00 0.00 0.00 83 1012.2
20200811055503 49 270 3.0 4.0 0.00 0.00 0.14 83 1012.2
20200811054404 49 270 3.0 5.0 0.00 0.00 0.14 83 1012.2
20200811053203 49 293 1.0 4.0 0.00 0.00 0.14 83 1011.9
20200811052103 49 270 2.0 4.0 0.00 0.00 0.14 83 1011.9
20200811051004 49 248 1.0 4.0 0.00 0.00 0.14 85 1011.9
20200811045903 49 225 2.0 4.0 0.00 0.00 0.14 85 1011.9
20200811044704 48 203 2.0 3.0 0.00 0.00 0.14 86 1011.9
20200811043703 48 248 1.0 3.0 0.00 0.00 0.14 88 1011.9
20200811042603 49 225 1.0 1.0 0.00 0.00 0.14 86 1011.9
20200811041503 49 180 0.0 0.0 0.00 0.00 0.14 88 1011.9
20200811040406 50 68 0.0 1.0 0.00 0.00 0.14 85 1011.9
20200811035203 51 158 0.0 0.0 0.00 0.00 0.14 83 1011.9
20200811034004 52 270 1.0 1.0 0.00 0.00 0.14 80 1011.5
20200811032804 54 270 0.0 0.0 0.00 0.00 0.14 76 1011.2
20200811031705 57 270 0.0 0.0 0.00 0.00 0.14 73 1011.2
20200811030603 59 293 1.0 1.0 0.00 0.00 0.14 69 1011.2
20200811025507 60 225 2.0 4.0 0.00 0.00 0.14 69 1010.8
20200811024403 59 270 0.0 0.0 0.00 0.00 0.14 71 1011.2
20200811023203 60 270 0.0 2.0 0.00 0.00 0.14 70 1010.8
20200811022006 63 293 2.0 3.0 0.00 0.00 0.14 63 1010.8
20200811020903 64 270 2.0 5.0 0.00 0.00 0.14 60 1011.2
20200811015903 65 270 1.0 5.0 0.00 0.00 0.14 56 1010.8
20200811014803 66 270 5.0 6.0 0.00 0.00 0.14 54 1011.2
20200811013704 67 23 6.0 8.0 0.00 0.00 0.14 50 1010.8